Weather History for KEAR - December, 2012

Change the Weather History Date:

Sunday, December 9, 2012

  Actual Average Record
Temperature  
Mean Temperature 22 °F 27 °F  
Max Temperature 37 °F 38 °F 69 °F (1957)
Min Temperature 7 °F 16 °F -23 °F (1919)
Degree Days  
Heating Degree Days 43 38  
Month to date heating degree days 332  
Since 1 July heating degree days 1765  
Cooling Degree Days 0 0  
Month to date cooling degree days 0  
Year to date cooling degree days 871  
Moisture  
Dew Point 8 °F    
Average Humidity 58    
Maximum Humidity 70    
Minimum Humidity 45    
Precipitation  
Precipitation 0.00 in - 0.71 in (1987)
Sea Level Pressure  
Sea Level Pressure 30.05 in    
Wind  
Wind Speed 20 mph (WNW)    
Max Wind Speed 30 mph    
Max Gust Speed 38 mph    
Visibility 10 miles    
Events      
T = Trace of Precipitation, MM = Missing Value Source: NWS Daily Summary

Daily Weather History Graph

Daily Weather History Graph

Search for Another Location

Airport or City:

Trip Planner

Search our weather history database for the weather conditions in past years. The results will help you decide how hot, cold, wet, or windy it might be!

Date:

Astronomy

Dec. 09, 2012 Rise Set
Actual Time 7:48 AM CST 5:08 PM CST
Civil Twilight 7:17 AM CST 5:39 PM CST
Nautical Twilight 6:43 AM CST 6:13 PM CST
Astronomical Twilight 6:10 AM CST 6:46 PM CST
Moon 3:22 AM CST (12/9) 2:17 PM CST (12/9)
Length of Visible Light 10h 21m
Length of Day
9h 19m
Waning Crescent, 18% of the Moon is Illuminated
Dec 9
Waning Crescent
Dec 13
New
Dec 19
First Quarter
Dec 28
Full
Jan 4
Last Quarter

Hourly Weather History & Observations

Time (CST) Temp. Windchill Dew Point Humidity Pressure Visibility Wind Dir Wind Speed Gust Speed Precip Events Conditions
12:15 AM 37.4 °F 28.9 °F 28.4 °F 70% 29.86 in 10.0 mi WSW 13.8 mph 20.7 mph N/A   Overcast
12:35 AM 37.4 °F 27.8 °F 26.6 °F 65% 29.85 in 10.0 mi WSW 17.3 mph 20.7 mph N/A   Overcast
12:55 AM 37.4 °F 30.3 °F 26.6 °F 65% 29.85 in 10.0 mi West 10.4 mph - N/A   Overcast
1:15 AM 37.4 °F 29.3 °F 26.6 °F 65% 29.85 in 10.0 mi West 12.7 mph - N/A   Overcast
1:35 AM 35.6 °F 28.6 °F 26.6 °F 70% 29.85 in 10.0 mi West 9.2 mph - N/A   Overcast
1:55 AM 35.6 °F 28.0 °F 24.8 °F 65% 29.86 in 10.0 mi West 10.4 mph - N/A   Overcast
2:15 AM 35.6 °F 28.6 °F 24.8 °F 65% 29.86 in 10.0 mi West 9.2 mph - N/A   Overcast
2:35 AM 35.6 °F 29.2 °F 24.8 °F 65% 29.86 in 10.0 mi West 8.1 mph - N/A   Overcast
2:55 AM 33.8 °F 27.0 °F 24.8 °F 70% 29.86 in 10.0 mi West 8.1 mph - N/A   Overcast
3:15 AM 33.8 °F 26.4 °F 24.8 °F 70% 29.86 in 10.0 mi West 9.2 mph - N/A   Overcast
3:35 AM 33.8 °F 24.3 °F 24.8 °F 70% 29.86 in 10.0 mi West 13.8 mph 19.6 mph N/A   Overcast
3:55 AM 33.8 °F 24.8 °F 23.0 °F 65% 29.89 in 10.0 mi West 12.7 mph - N/A   Overcast
4:15 AM 33.8 °F 22.2 °F 21.2 °F 60% 29.87 in 10.0 mi West 20.7 mph 24.2 mph N/A   Overcast
4:35 AM 32.0 °F 19.5 °F 21.2 °F 64% 29.88 in 10.0 mi West 21.9 mph 27.6 mph N/A   Overcast
4:55 AM 30.2 °F 16.5 °F 19.4 °F 64% 29.90 in 10.0 mi WNW 24.2 mph 28.8 mph N/A   Overcast
5:15 AM 28.4 °F 15.4 °F 15.8 °F 59% 29.92 in 10.0 mi WNW 19.6 mph 31.1 mph N/A   Overcast
5:35 AM 26.6 °F 14.7 °F 15.8 °F 64% 29.93 in 10.0 mi WNW 15.0 mph 26.5 mph N/A   Mostly Cloudy
5:55 AM 24.8 °F 10.3 °F 12.2 °F 59% 29.94 in 10.0 mi WNW 20.7 mph 28.8 mph N/A   Mostly Cloudy
6:15 AM 24.8 °F 10.3 °F 10.4 °F 54% 29.96 in 10.0 mi WNW 20.7 mph 27.6 mph N/A   Scattered Clouds
6:35 AM 21.2 °F 6.0 °F 10.4 °F 63% 29.98 in 10.0 mi WNW 19.6 mph - N/A   Partly Cloudy
6:55 AM 19.4 °F 3.2 °F 8.6 °F 63% 29.99 in 10.0 mi WNW 20.7 mph 26.5 mph N/A   Clear
7:15 AM 17.6 °F 0.5 °F 5.0 °F 58% 29.99 in 10.0 mi WNW 21.9 mph 28.8 mph N/A   Clear
7:35 AM 17.6 °F 2.7 °F 3.2 °F 53% 30.01 in 10.0 mi WNW 16.1 mph 24.2 mph N/A   Clear
7:55 AM 17.6 °F 2.2 °F 5.0 °F 58% 30.02 in 10.0 mi West 17.3 mph 21.9 mph N/A   Mostly Cloudy
8:15 AM 17.6 °F -0.3 °F 3.2 °F 53% 30.02 in 8.0 mi WNW 24.2 mph 32.2 mph N/A   Overcast
8:35 AM 17.6 °F -0.3 °F 3.2 °F 53% 30.03 in 10.0 mi West 24.2 mph 35.7 mph N/A   Overcast
8:55 AM 17.6 °F 0.9 °F 3.2 °F 53% 30.05 in 10.0 mi WNW 20.7 mph 34.5 mph N/A   Partly Cloudy
9:15 AM 15.8 °F -2.7 °F 1.4 °F 53% 30.05 in 10.0 mi WNW 24.2 mph 33.4 mph N/A   Scattered Clouds
9:35 AM 15.8 °F -2.7 °F 1.4 °F 53% 30.05 in 10.0 mi WNW 24.2 mph 33.4 mph N/A   Overcast
9:55 AM 15.8 °F -2.7 °F 3.2 °F 58% 30.05 in 10.0 mi West 24.2 mph 32.2 mph N/A   Scattered Clouds
10:15 AM 17.6 °F -0.6 °F 3.2 °F 53% 30.06 in 10.0 mi West 25.3 mph 35.7 mph N/A   Clear
10:35 AM 17.6 °F 0.1 °F 3.2 °F 53% 30.08 in 10.0 mi WNW 23.0 mph 32.2 mph N/A   Clear
10:55 AM 17.6 °F -0.6 °F 1.4 °F 49% 30.09 in 10.0 mi West 25.3 mph 31.1 mph N/A   Clear
11:15 AM 19.4 °F 1.8 °F 1.4 °F 46% 30.08 in 10.0 mi WNW 25.3 mph 31.1 mph N/A   Clear
11:35 AM 19.4 °F 2.5 °F 3.2 °F 49% 30.07 in 10.0 mi WNW 23.0 mph 32.2 mph N/A   Clear
11:55 AM 19.4 °F 1.1 °F 3.2 °F 49% 30.07 in 10.0 mi West 27.6 mph 38.0 mph N/A   Clear
12:15 PM 21.2 °F 3.9 °F 3.2 °F 46% 30.07 in 10.0 mi WNW 26.5 mph 36.8 mph N/A   Clear
12:35 PM 21.2 °F 3.0 °F 3.2 °F 46% 30.06 in 10.0 mi West 29.9 mph 36.8 mph N/A   Clear
12:55 PM 21.2 °F 3.0 °F 3.2 °F 46% 30.06 in 10.0 mi West 29.9 mph 36.8 mph N/A   Clear
1:15 PM 21.2 °F 4.9 °F 3.2 °F 46% 30.06 in 10.0 mi WNW 23.0 mph 33.4 mph N/A   Clear
1:35 PM 21.2 °F 3.5 °F 3.2 °F 46% 30.06 in 10.0 mi West 27.6 mph 35.7 mph N/A   Clear
1:55 PM 21.2 °F 3.9 °F 3.2 °F 46% 30.07 in 10.0 mi WNW 26.5 mph 34.5 mph N/A   Clear
2:15 PM 21.2 °F 2.7 °F 3.2 °F 46% 30.07 in 10.0 mi WNW 31.1 mph 36.8 mph N/A   Clear
2:35 PM 21.2 °F 3.5 °F 3.2 °F 46% 30.09 in 10.0 mi WNW 27.6 mph 34.5 mph N/A   Clear
2:55 PM 21.2 °F 3.9 °F 3.2 °F 46% 30.09 in 10.0 mi WNW 26.5 mph 34.5 mph N/A   Clear
3:15 PM 19.4 °F 0.5 °F 3.2 °F 49% 30.10 in 10.0 mi West 29.9 mph 36.8 mph N/A   Clear
3:35 PM 19.4 °F 0.8 °F 3.2 °F 49% 30.11 in 10.0 mi WNW 28.8 mph 36.8 mph N/A   Partly Cloudy
3:55 PM 19.4 °F 1.8 °F 3.2 °F 49% 30.12 in 10.0 mi WNW 25.3 mph 32.2 mph N/A   Scattered Clouds
4:15 PM 19.4 °F 0.2 °F 3.2 °F 49% 30.12 in 10.0 mi WNW 31.1 mph 36.8 mph N/A   Mostly Cloudy
4:35 PM 17.6 °F 0.5 °F 3.2 °F 53% 30.13 in 10.0 mi WNW 21.9 mph 31.1 mph N/A   Scattered Clouds
4:55 PM 17.6 °F -0.3 °F 3.2 °F 53% 30.14 in 10.0 mi WNW 24.2 mph 32.2 mph N/A   Mostly Cloudy
5:15 PM 17.6 °F -0.6 °F 3.2 °F 53% 30.15 in 10.0 mi WNW 25.3 mph 34.5 mph N/A   Overcast
5:35 PM 17.6 °F -0.3 °F 3.2 °F 53% 30.16 in 10.0 mi NW 24.2 mph 33.4 mph N/A   Overcast
5:55 PM 15.8 °F -2.3 °F 3.2 °F 58% 30.16 in 10.0 mi WNW 23.0 mph 28.8 mph N/A   Mostly Cloudy
6:15 PM 15.8 °F -3.4 °F 3.2 °F 58% 30.17 in 10.0 mi NW 26.5 mph 32.2 mph N/A   Scattered Clouds
6:35 PM 14.0 °F -5.5 °F 3.2 °F 62% 30.17 in 10.0 mi WNW 25.3 mph 32.2 mph N/A   Clear
6:55 PM 14.0 °F -5.1 °F 1.4 °F 57% 30.18 in 10.0 mi WNW 24.2 mph 32.2 mph N/A   Clear
7:15 PM 12.2 °F -6.3 °F -0.4 °F 57% 30.19 in 10.0 mi WNW 20.7 mph 27.6 mph N/A   Clear
7:35 PM 12.2 °F -3.7 °F -0.4 °F 57% 30.19 in 10.0 mi NW 15.0 mph 26.5 mph N/A   Clear
7:55 PM 12.2 °F -4.3 °F -0.4 °F 57% 30.20 in 10.0 mi WNW 16.1 mph 27.6 mph N/A   Clear
8:15 PM 12.2 °F -5.8 °F -0.4 °F 57% 30.20 in 10.0 mi WNW 19.6 mph 26.5 mph N/A   Clear
8:35 PM 10.4 °F -8.6 °F -0.4 °F 62% 30.21 in 10.0 mi WNW 20.7 mph 26.5 mph N/A   Clear
8:55 PM 10.4 °F -7.2 °F -0.4 °F 62% 30.20 in 10.0 mi NW 17.3 mph - N/A   Clear
9:15 PM 10.4 °F -6.6 °F -0.4 °F 62% 30.20 in 10.0 mi WNW 16.1 mph 23.0 mph N/A   Clear
9:35 PM 10.4 °F -6.6 °F -0.4 °F 62% 30.21 in 10.0 mi WNW 16.1 mph - N/A   Clear
9:55 PM 8.6 °F -8.3 °F -0.4 °F 67% 30.21 in 10.0 mi WNW 15.0 mph - N/A   Clear
10:15 PM 8.6 °F -8.3 °F -0.4 °F 67% 30.20 in 10.0 mi WNW 15.0 mph - N/A   Clear
10:35 PM 8.6 °F -8.9 °F -0.4 °F 67% 30.20 in 10.0 mi WNW 16.1 mph - N/A   Clear
10:55 PM 8.6 °F -5.5 °F -0.4 °F 67% 30.19 in 10.0 mi WNW 10.4 mph - N/A   Clear
11:15 PM 8.6 °F -6.3 °F -0.4 °F 67% 30.19 in 10.0 mi WNW 11.5 mph - N/A   Clear
11:35 PM 6.8 °F -9.3 °F -0.4 °F 72% 30.18 in 10.0 mi WNW 12.7 mph - N/A   Clear
11:55 PM 6.8 °F -10.0 °F -0.4 °F 72% 30.17 in 10.0 mi WNW 13.8 mph - N/A   Clear